Location: Prairie View Elementary School
(39.8322°N, 99.5698°W)
Time: 03:45:56
(UTC+00:00)

SL-16 R/B - Pass Details

Date: 08 December 2019
Orbit: 840 x 849 km, 71.0° (Epoch: 17 January)

Event Time Altitude Azimuth Distance (km) Brightness Sun altitude
Rises 00:47:26 0° 184° (S) 3,387 5.6 -17.5°
Reaches altitude 10° 00:49:57 10° 178° (S) 2,458 4.8 -18.0°
Maximum altitude 00:55:19 46° 106° (ESE) 1,124 2.5 -19.0°
Enters shadow 00:57:13 34° 60° (ENE) 1,370 2.8 -19.3°
